Overview Statistics Trail Chart Weather Telemetry Raw packets
 

This is the latest recevied weather packets stored in our database for station/object KW4UJ. If no packets are shown the sender has not sent any weather packets the latest 10 day(s).

<< 1 2 3 4 >>
Time Temp. Humidity Pressure Rain* Wind** Luminosity Snow
1788649949 25.56° C 71% 1011.1 hPa 0 mm - 10 W/m² -
1788649645 25.56° C 72% 1011.1 hPa 0 mm - 13 W/m² -
1788649342 25.56° C 72% 1011.1 hPa 0 mm - 20 W/m² -
1788649076 25.56° C 73% 1011.1 hPa 0 mm - 30 W/m² -
1788648737 25.56° C 72% 1011.2 hPa 0 mm - 38 W/m² -
1788648436 25.56° C 72% 1011.1 hPa 0 mm - 35 W/m² -
1788648132 25.56° C 74% 1011.2 hPa 0 mm - 35 W/m² -
1788647828 26.11° C 71% 1011.1 hPa 0 mm - 38 W/m² -
1788647525 26.11° C 69% 1011.1 hPa 0 mm - 36 W/m² -
1788647220 26.11° C 70% 1011.1 hPa 0 mm - 39 W/m² -
1788646945 26.11° C 72% 1010.9 hPa 0 mm - 45 W/m² -
1788646615 26.11° C 72% 1011.2 hPa 0 mm - 46 W/m² -
1788646312 26.11° C 72% 1011 hPa 0 mm - 49 W/m² -
1788646007 26.11° C 73% 1010.9 hPa 0 mm - 58 W/m² -
1788645703 26.11° C 71% 1011 hPa 0 mm - 43 W/m² -
1788645403 26.11° C 71% 1010.8 hPa 0 mm - 38 W/m² -
1788645098 26.67° C 70% 1010.8 hPa 0 mm - 47 W/m² -
1788644794 26.11° C 71% 1010.7 hPa 0 mm - 180 W/m² -
1788644489 26.11° C 71% 1010.9 hPa 0 mm - 116 W/m² -
1788644184 26.11° C 71% 1010.8 hPa 0 mm - 61 W/m² -
1788643880 26.11° C 71% 1010.6 hPa 0 mm - 59 W/m² -
1788643575 26.11° C 71% 1010.6 hPa 0 mm - 81 W/m² -
1788643274 26.11° C 71% 1010.6 hPa 0 mm - 77 W/m² -
1788642970 26.67° C 72% 1010.5 hPa 0 mm - 58 W/m² -
1788642665 26.67° C 71% 1010.3 hPa 0 mm - 78 W/m² -

* Rain latest hour (hover to see other rain measurements)
** Current wind speed in m/s (hover to see current wind gust speed)